Content
SEND FEEDBACK

Daily
Averages
Monthly
Summary
United States of America

NEW LIMERICK, MAINE


Home > North America > United States > Maine
Elevation: 606 feet     Latitude: 46 07N     Longitude: 067 47W

WEATHER
 
SELECT A DAY
Number of Records: 175,612;   Date Range: 1/1/95 - 9/29/14
 
SHARE

PRINT THIS DATA

[ ← Previous Day ]
WEATHER ALMANAC - JANUARY 3, 2013
[ Next Day → ]
[ °C ]   °F
Weather ElementAverageHighLow
Temperature1.3 °F9 °F (1:53 pm)-5.1 °F (8:53 pm)
Dewpoint-8 °F-4 °F (1:53 pm)-11.9 °F (6:53 am)
Humidity65.3 %76 % (7:53 pm)55 % (11:53 am)
Barometer29.93 in29.99 in (5:53 am)29.86 in (11:53 pm)
Wind Speed5.4 mph10.4 mph (10:53 am)
Wind Gust19.6 mph (9:53 am)
Weather ElementAverage
Visibility10 mi
Wind DirectionSSW (218.3 °)

Weather ElementTotal
Precipitation---
Heating Degree Days63.1 (Base 65)
Averaged from 23 records on January 3, 2013
WEATHER CONDITIONS BREAKOUT
WIND DIRECTION BREAKOUT
WEATHER BY HOUR - JANUARY 3, 2013
[ °C ]   °F
Local TimeTemperatureDewpointHumidityBarometerVisibilityWind DirectionWind SpeedGust SpeedPrecipitationEventsConditions
1:53 AM0.0 °F-9.9 °F63 %29.95 in10.0 miNW (310°)8.1 mphClear
2:53 AM-0.9 °F-9.9 °F66 %29.96 in10.0 miNNW (330°)9.2 mphClear
3:53 AM-2.0 °F-9.9 °F69 %29.96 in10.0 miNNW (330°)6.9 mphClear
4:53 AM-2.0 °F-9.9 °F69 %29.96 in10.0 miNW (310°)8.1 mphClear
5:53 AM-2.0 °F-11.0 °F66 %29.99 in10.0 miNW (310°)9.2 mphClear
6:53 AM-2.9 °F-11.9 °F65 %29.98 in10.0 miNW (310°)8.1 mphClear
7:53 AM-2.9 °F-11.9 °F65 %29.98 in10.0 miNW (320°)5.8 mphClear
8:53 AM-2.9 °F-11.9 °F65 %29.99 in10.0 miWest (270°)4.6 mphClear
9:53 AM1.9 °F-9.0 °F60 %29.98 in10.0 miNNW (330°)9.2 mph19.6 mphClear
10:53 AM3.9 °F-7.1 °F60 %29.95 in10.0 miNNW (340°)10.4 mphClear
11:53 AM7.0 °F-6.0 °F55 %29.93 in10.0 miNNW (330°)10.4 mphPartly Cloudy
12:53 PM8.1 °F-5.1 °F55 %29.92 in10.0 miNW (310°)9.2 mph18.4 mphScattered Clouds
1:53 PM9.0 °F-4.0 °F56 %29.91 in10.0 miWNW (300°)6.9 mphOvercast
2:53 PM9.0 °F-4.0 °F56 %29.91 in10.0 miNNW (330°)6.9 mphOvercast
3:53 PM7.0 °F-4.0 °F61 %29.91 in10.0 miWNW (290°)4.6 mphMostly Cloudy
4:53 PM3.9 °F-5.1 °F66 %29.91 in10.0 miCalmScattered Clouds
5:53 PM3.0 °F-6.0 °F66 %29.91 in10.0 miCalmClear
6:53 PM0.0 °F-8.0 °F69 %29.92 in10.0 miWNW (300°)5.8 mphScattered Clouds
7:53 PM-4.0 °F-9.9 °F76 %29.91 in10.0 miCalmOvercast
8:53 PM-5.1 °F-11.0 °F76 %29.90 in10.0 miCalmOvercast
9:53 PM0.0 °F-6.0 °F76 %29.90 in10.0 miCalmOvercast
10:53 PM1.9 °F-6.0 °F69 %29.88 in10.0 miCalmOvercast
11:53 PM0.0 °F-7.1 °F72 %29.86 in10.0 miCalmClear
Hourly data recorded from KHUL, located miles away from New Limerick, Maine







STORIES FROM OUR PARTNERS